NOAA 16 DEB, 41344

Orbit data source: Space-Track

NOAA 16 DEB, 41344 is space debris in SSO originally from a launch on Thu, 21 Sep 2000 UTC launched from the Air Force Western Test Range (AFWTR). Debris objects in space refer to the collection of defunct objects orbiting the Earth. Examples of debris include non-operational satellites, rocket bodies, and fragments generated from explosions, collisions, or faulty payload assembly.

Loading next visibility...
Identifier
41344, 2000-055HM
Orbit
SSO
Country
Flag of USUS
Related business
Manufacturer
Unknown
Mission
Spacecraft
Bus & Motor
Unknown
Mass
Unknown
Launch date (UTC)
2000-09-21 (25 years ago)
Launch vehicle
Unknown
Launch site
Air Force Western Test Range (AFWTR)
Object type
Payload
Rocket body
Debris
Shape & HBR
Unknown shape, 0.1 m
Radar Cross Section
Small (<0.1 m²)

Expand to show TLE details & history
Last TLE update: 12 hours ago

TLE from 12 hours ago
0 NOAA 16 DEB
1 41344U 00055HM  25351.86400759  .00005483  00000-0  15941-2 0  9993
2 41344  99.0696 221.2187 0026022 335.6227  24.3729 14.44507640514305
Epoch: 2025-12-17T20:44Z
TLE epoch observation values (Epoch: 2025-12-17T20:44:10.255Z)
Latitude
-0.00007°
Longitude
-176.55177°
Altitude
729.704 km
Speed
7.499 km/s
True Right ascension
14h 44m 52s
True Declination
0° 00' 00"
Sunlit
Object was in daylight at epoch
Visualization orbit readout
Latitude
Unknown
Longitude
Unknown
Altitude
Unknown
Speed
Unknown
Apparent Right ascension
Unknown
Apparent Declination
Unknown
Sunlit
N/A
Visualization observer readout
Local Sidereal Time
07:20:52
Azimuth
Unknown
Elevation
Unknown
Doppler factor
Unknown
Orbital elements
Apogee altitude
759.312 km
Perigee altitude
722.263 km
Semi-major axis
7,118.925 km
Eccentricity
0.0026
Inclination
99.0696°
RAAN
221.2187°
Arg. of periapsis
335.6227°
True anomaly
24.49632°
Mean anomaly
24.3729°
Eccentric anomaly
24.43457°
Mean motion
3.61345 °/min
Orbital period
99.63 mins
BSTAR
0.0015941
Loading maneuver chart data...
Computing Atmospheric mass density...
Loading historical data...
Loading historical data...
Loading historical data...
Loading historical data...
Loading historical data...
Loading historical data...
Loading historical data...

Documentation

Showing up to 5 results
|